�������l�o���
Date,Time,MP-1(��Sv/h),MP-2(��Sv/h),MP-3(��Sv/h),MP-4(��Sv/h),MP-5(��Sv/h),MP-6(��Sv/h),MP-7(��Sv/h),MP-8(��Sv/h),����,����(m/s),���J
2017/09/24,00:00,0.927,1.479,0.961,1.769,1.209,0.509,0.933,0.860,���k��,2.0,��
2017/09/24,00:10,0.930,1.478,0.962,1.771,1.212,0.508,0.934,0.859,��,2.2,��
2017/09/24,00:20,0.928,1.477,0.963,1.768,1.211,0.508,0.933,0.860,��,1.7,��
2017/09/24,00:30,0.927,1.478,0.961,1.771,1.213,0.509,0.933,0.859,��,1.7,��
2017/09/24,00:40,0.927,1.477,0.963,1.771,1.209,0.508,0.934,0.861,��,1.5,��
2017/09/24,00:50,0.928,1.480,0.962,1.773,1.212,0.508,0.933,0.859,���k��,1.1,��
2017/09/24,01:00,0.927,1.473,0.961,1.771,1.211,0.509,0.932,0.860,�k��,1.1,��
2017/09/24,01:10,0.928,1.477,0.961,1.769,1.208,0.509,0.935,0.860,���k��,0.9,��
2017/09/24,01:20,0.928,1.481,0.963,1.771,1.211,0.508,0.934,0.861,���k��,0.9,��
2017/09/24,01:30,0.930,1.480,0.961,1.771,1.211,0.507,0.934,0.860,�k��,1.2,��
2017/09/24,01:40,0.928,1.479,0.960,1.772,1.211,0.509,0.933,0.861,-,CALM,��
2017/09/24,01:50,0.927,1.475,0.963,1.770,1.210,0.508,0.935,0.862,���k��,0.9,��
2017/09/24,02:00,0.929,1.473,0.962,1.772,1.211,0.508,0.934,0.860,��,0.6,��
2017/09/24,02:10,0.929,1.478,0.963,1.769,1.211,0.509,0.934,0.859,-,CALM,��
2017/09/24,02:20,0.929,1.479,0.964,1.772,1.209,0.508,0.935,0.859,��,0.6,��
2017/09/24,02:30,0.929,1.480,0.964,1.772,1.211,0.508,0.934,0.859,���k��,0.8,��
2017/09/24,02:40,0.930,1.480,0.963,1.773,1.209,0.508,0.936,0.858,-,CALM,��
2017/09/24,02:50,0.928,1.479,0.963,1.771,1.212,0.508,0.936,0.859,��,0.9,��
2017/09/24,03:00,0.929,1.477,0.964,1.769,1.212,0.510,0.935,0.859,-,CALM,��
2017/09/24,03:10,0.929,1.478,0.964,1.772,1.211,0.509,0.934,0.859,��쓌,0.9,��
2017/09/24,03:20,0.927,1.477,0.960,1.772,1.207,0.508,0.935,0.860,���k��,0.6,��
2017/09/24,03:30,0.929,1.478,0.963,1.772,1.211,0.509,0.934,0.861,-,CALM,��
2017/09/24,03:40,0.929,1.475,0.962,1.772,1.212,0.509,0.935,0.858,���쐼,0.8,��
2017/09/24,03:50,0.928,1.479,0.961,1.771,1.212,0.509,0.934,0.860,�쐼,0.6,��
2017/09/24,04:00,0.929,1.478,0.961,1.773,1.210,0.509,0.936,0.859,��,1.2,��
2017/09/24,04:10,0.929,1.474,0.964,1.772,1.213,0.508,0.934,0.859,��,1.5,��
2017/09/24,04:20,0.929,1.477,0.961,1.773,1.213,0.509,0.933,0.862,��,1.9,��
2017/09/24,04:30,0.930,1.480,0.963,1.769,1.212,0.508,0.935,0.860,���쐼,1.9,��
2017/09/24,04:40,0.926,1.478,0.962,1.771,1.210,0.509,0.933,0.861,���쐼,2.5,��
2017/09/24,04:50,0.928,1.479,0.962,1.770,1.210,0.509,0.936,0.861,��,3.9,��
2017/09/24,05:00,0.929,1.475,0.964,1.774,1.211,0.509,0.934,0.861,��,5.1,��
2017/09/24,05:10,0.930,1.479,0.961,1.772,1.211,0.508,0.935,0.861,���k��,6.8,��
2017/09/24,05:20,0.928,1.475,0.962,1.770,1.212,0.509,0.934,0.861,���k��,6.6,��
2017/09/24,05:30,0.928,1.475,0.961,1.772,1.211,0.509,0.936,0.860,���k��,6.5,��
2017/09/24,05:40,0.927,1.477,0.961,1.772,1.211,0.509,0.935,0.860,�k��,5.9,��
2017/09/24,05:50,0.926,1.478,0.962,1.771,1.210,0.510,0.936,0.862,�k��,4.8,��
2017/09/24,06:00,0.927,1.477,0.961,1.773,1.209,0.510,0.935,0.862,�k��,5.4,��
2017/09/24,06:10,0.929,1.480,0.962,1.773,1.210,0.509,0.935,0.860,�k�k��,5.3,��
2017/09/24,06:20,0.928,1.479,0.961,1.774,1.210,0.509,0.934,0.860,�k�k��,3.9,��
2017/09/24,06:30,0.929,1.478,0.962,1.773,1.210,0.509,0.934,0.861,�k�k��,3.0,��
2017/09/24,06:40,0.927,1.480,0.962,1.772,1.209,0.509,0.934,0.862,�k��,2.3,��
2017/09/24,06:50,0.928,1.481,0.964,1.774,1.208,0.509,0.937,0.861,�k��,1.9,��
2017/09/24,07:00,0.929,1.478,0.962,1.775,1.209,0.508,0.934,0.861,�k��,1.7,��
2017/09/24,07:10,0.929,1.482,0.964,1.772,1.212,0.509,0.933,0.861,���k��,2.0,��
2017/09/24,07:20,0.929,1.481,0.964,1.774,1.211,0.509,0.935,0.862,���k��,2.3,��
2017/09/24,07:30,0.930,1.480,0.965,1.776,1.214,0.510,0.936,0.860,��,2.9,��
2017/09/24,07:40,0.930,1.480,0.964,1.773,1.213,0.509,0.937,0.863,���k��,2.6,��
2017/09/24,07:50,0.932,1.483,0.965,1.774,1.209,0.510,0.937,0.864,���쐼,1.4,��
2017/09/24,08:00,0.933,1.481,0.965,1.776,1.212,0.509,0.938,0.864,�쐼,0.8,��
2017/09/24,08:10,0.934,1.483,0.965,1.777,1.214,0.510,0.936,0.864,��,2.0,��
2017/09/24,08:20,0.929,1.482,0.966,1.774,1.212,0.508,0.936,0.863,��쓌,1.2,��
2017/09/24,08:30,0.931,1.480,0.967,1.779,1.217,0.507,0.934,0.862,��쓌,2.0,��
2017/09/24,08:40,0.931,1.482,0.966,1.777,1.215,0.508,0.936,0.861,�쓌,2.3,��
2017/09/24,08:50,0.932,1.481,0.965,1.780,1.214,0.508,0.934,0.861,��쓌,2.2,��
2017/09/24,09:00,0.930,1.479,0.967,1.778,1.218,0.508,0.936,0.858,�쓌,2.9,��
2017/09/24,09:10,0.932,1.484,0.965,1.775,1.213,0.507,0.935,0.857,��쓌,3.1,��
2017/09/24,09:20,0.932,1.484,0.965,1.780,1.216,0.508,0.935,0.860,��쓌,3.2,��
2017/09/24,09:30,0.931,1.481,0.966,1.777,1.216,0.509,0.934,0.860,��쓌,3.7,��
2017/09/24,09:40,0.934,1.487,0.962,1.777,1.217,0.509,0.935,0.860,��쓌,3.0,��
2017/09/24,09:50,0.934,1.487,0.965,1.779,1.217,0.509,0.936,0.861,��쓌,5.2,��
2017/09/24,10:00,0.934,1.486,0.965,1.780,1.216,0.509,0.938,0.860,��쓌,6.6,��
2017/09/24,10:10,0.933,1.487,0.965,1.777,1.218,0.509,0.934,0.860,��쓌,4.8,��
2017/09/24,10:20,0.935,1.487,0.967,1.782,1.219,0.510,0.937,0.860,��쓌,5.9,��
2017/09/24,10:30,0.935,1.490,0.968,1.782,1.217,0.512,0.935,0.860,��쓌,5.4,��
2017/09/24,10:40,0.935,1.493,0.967,1.779,1.220,0.509,0.937,0.860,��쓌,5.6,��
2017/09/24,10:50,0.935,1.493,0.965,1.780,1.219,0.510,0.936,0.859,��쓌,5.6,��
2017/09/24,11:00,0.936,1.491,0.966,1.780,1.221,0.510,0.936,0.858,��쓌,7.0,��
2017/09/24,11:10,0.937,1.492,0.968,1.782,1.221,0.511,0.936,0.862,��쓌,6.3,��
2017/09/24,11:20,0.936,1.494,0.969,1.782,1.224,0.512,0.935,0.861,��쓌,6.0,��
2017/09/24,11:30,0.936,1.494,0.970,1.784,1.223,0.511,0.939,0.862,��쓌,5.5,��
2017/09/24,11:40,0.939,1.494,0.970,1.781,1.221,0.511,0.938,0.861,��쓌,5.5,��
2017/09/24,11:50,0.939,1.494,0.969,1.778,1.221,0.513,0.938,0.862,��쓌,5.4,��
2017/09/24,12:00,0.938,1.498,0.968,1.780,1.224,0.510,0.937,0.861,��쓌,6.1,��
2017/09/24,12:10,0.940,1.495,0.972,1.780,1.225,0.513,0.937,0.861,��쓌,4.8,��
2017/09/24,12:20,0.939,1.499,0.972,1.783,1.226,0.511,0.938,0.861,��쓌,4.8,��
2017/09/24,12:30,0.939,1.500,0.972,1.783,1.225,0.512,0.937,0.861,��쓌,4.8,��
2017/09/24,12:40,0.940,1.496,0.972,1.783,1.228,0.514,0.938,0.864,��쓌,4.1,��
2017/09/24,12:50,0.939,1.501,0.971,1.783,1.225,0.512,0.939,0.863,��쓌,4.4,��
2017/09/24,13:00,0.941,1.498,0.971,1.784,1.227,0.513,0.938,0.861,�쓌,3.8,��
2017/09/24,13:10,0.944,1.501,0.973,1.784,1.228,0.513,0.939,0.859,�쓌,3.1,��
2017/09/24,13:20,0.942,1.500,0.974,1.783,1.228,0.512,0.939,0.861,��쓌,4.2,��
2017/09/24,13:30,0.944,1.500,0.971,1.785,1.228,0.514,0.939,0.862,��쓌,4.1,��
2017/09/24,13:40,0.943,1.501,0.972,1.785,1.229,0.513,0.937,0.862,��쓌,3.9,��
2017/09/24,13:50,0.940,1.502,0.976,1.784,1.230,0.513,0.941,0.862,�쓌,3.6,��
2017/09/24,14:00,0.944,1.500,0.975,1.782,1.231,0.513,0.940,0.862,�쓌,3.0,��
2017/09/24,14:10,0.944,1.503,0.973,1.786,1.231,0.516,0.940,0.863,��쓌,3.0,��
2017/09/24,14:20,0.944,1.501,0.974,1.786,1.230,0.513,0.939,0.863,�쓌,2.8,��
2017/09/24,14:30,0.944,1.500,0.975,1.789,1.229,0.514,0.939,0.861,��쓌,3.4,��
2017/09/24,14:40,0.942,1.504,0.973,1.786,1.228,0.515,0.938,0.863,��쓌,3.5,��
2017/09/24,14:50,0.943,1.503,0.973,1.787,1.229,0.513,0.939,0.862,��쓌,3.7,��
2017/09/24,15:00,0.944,1.502,0.975,1.785,1.231,0.515,0.939,0.861,��쓌,3.4,��
2017/09/24,15:10,0.943,1.504,0.975,1.784,1.230,0.513,0.939,0.863,��쓌,2.6,��
2017/09/24,15:20,0.942,1.503,0.975,1.789,1.233,0.514,0.939,0.860,�쓌,3.1,��
2017/09/24,15:30,0.940,1.504,0.974,1.785,1.231,0.515,0.939,0.862,�쓌,3.7,��
2017/09/24,15:40,0.945,1.504,0.974,1.787,1.229,0.513,0.939,0.864,��쓌,3.9,��
2017/09/24,15:50,0.946,1.505,0.974,1.786,1.233,0.515,0.939,0.862,��쓌,4.1,��
2017/09/24,16:00,0.943,1.507,0.976,1.784,1.231,0.515,0.940,0.863,��쓌,3.3,��
2017/09/24,16:10,0.942,1.504,0.977,1.786,1.229,0.514,0.940,0.862,��쓌,3.4,��
2017/09/24,16:20,0.945,1.502,0.976,1.784,1.233,0.514,0.939,0.862,��,4.0,��
2017/09/24,16:30,0.945,1.504,0.975,1.784,1.235,0.512,0.938,0.861,��,3.5,��
2017/09/24,16:40,0.944,1.504,0.973,1.787,1.232,0.515,0.939,0.862,��,3.6,��
2017/09/24,16:50,0.944,1.505,0.975,1.780,1.233,0.515,0.940,0.863,��,3.6,��
2017/09/24,17:00,0.944,1.506,0.974,1.787,1.233,0.515,0.939,0.861,��,4.3,��
2017/09/24,17:10,0.942,1.508,0.974,1.788,1.231,0.514,0.940,0.861,��,4.1,��
2017/09/24,17:20,0.944,1.508,0.976,1.787,1.234,0.516,0.940,0.865,��,4.7,��
2017/09/24,17:30,0.943,1.508,0.976,1.786,1.232,0.515,0.941,0.866,��쐼,4.0,��
2017/09/24,17:40,0.946,1.506,0.974,1.789,1.234,0.517,0.939,0.866,��쐼,3.6,��
2017/09/24,17:50,0.944,1.507,0.975,1.787,1.235,0.517,0.941,0.865,��쐼,4.0,��
2017/09/24,18:00,0.945,1.507,0.976,1.792,1.233,0.514,0.939,0.865,��쐼,3.5,��
2017/09/24,18:10,0.944,1.505,0.977,1.787,1.234,0.516,0.939,0.865,��쐼,3.4,��
2017/09/24,18:20,0.947,1.508,0.977,1.789,1.232,0.516,0.940,0.865,��쐼,2.5,��
2017/09/24,18:30,0.946,1.506,0.977,1.785,1.234,0.516,0.942,0.864,�쐼,2.3,��
2017/09/24,18:40,0.943,1.507,0.978,1.787,1.232,0.515,0.940,0.866,��쐼,3.8,��
2017/09/24,18:50,0.945,1.506,0.977,1.787,1.232,0.517,0.939,0.866,��쐼,4.0,��
2017/09/24,19:00,0.943,1.506,0.976,1.785,1.234,0.516,0.939,0.863,��쐼,3.7,��
2017/09/24,19:10,0.945,1.508,0.976,1.788,1.234,0.516,0.940,0.864,��쐼,4.0,��
2017/09/24,19:20,0.946,1.505,0.977,1.786,1.232,0.513,0.941,0.865,��쐼,4.1,��
2017/09/24,19:30,0.946,1.505,0.976,1.789,1.234,0.516,0.940,0.863,��쐼,4.8,��
2017/09/24,19:40,0.946,1.506,0.977,1.787,1.233,0.515,0.941,0.863,��쐼,5.0,��
2017/09/24,19:50,0.947,1.504,0.976,1.785,1.233,0.515,0.942,0.865,��쐼,4.5,��
2017/09/24,20:00,0.946,1.503,0.977,1.785,1.233,0.515,0.939,0.862,��쐼,4.2,��
2017/09/24,20:10,0.943,1.508,0.975,1.786,1.235,0.515,0.940,0.863,��쐼,3.2,��
2017/09/24,20:20,0.944,1.505,0.975,1.785,1.233,0.517,0.941,0.864,��,3.1,��
2017/09/24,20:30,0.945,1.507,0.976,1.786,1.232,0.516,0.940,0.864,��,3.1,��
2017/09/24,20:40,0.944,1.504,0.977,1.786,1.233,0.515,0.939,0.864,��쐼,3.5,��
2017/09/24,20:50,0.944,1.504,0.977,1.785,1.233,0.514,0.941,0.864,��,3.5,��
2017/09/24,21:00,0.944,1.506,0.976,1.788,1.233,0.515,0.939,0.865,��쐼,3.0,��
2017/09/24,21:10,0.945,1.503,0.977,1.785,1.232,0.515,0.941,0.866,��쐼,3.2,��
2017/09/24,21:20,0.944,1.503,0.977,1.787,1.234,0.515,0.939,0.864,��쐼,3.3,��
2017/09/24,21:30,0.944,1.504,0.975,1.789,1.233,0.514,0.939,0.863,��,3.0,��
2017/09/24,21:40,0.945,1.504,0.977,1.788,1.236,0.515,0.938,0.864,��,3.5,��
2017/09/24,21:50,0.943,1.504,0.976,1.786,1.232,0.515,0.939,0.864,��,2.6,��
2017/09/24,22:00,0.945,1.505,0.973,1.788,1.232,0.516,0.938,0.864,��,2.3,��
2017/09/24,22:10,0.946,1.500,0.976,1.786,1.232,0.515,0.941,0.865,��,2.9,��
2017/09/24,22:20,0.945,1.501,0.975,1.787,1.233,0.515,0.939,0.863,��,2.9,��
2017/09/24,22:30,0.944,1.504,0.976,1.787,1.231,0.514,0.940,0.864,��,2.8,��
2017/09/24,22:40,0.944,1.503,0.976,1.786,1.231,0.514,0.939,0.864,��,3.5,��
2017/09/24,22:50,0.943,1.504,0.974,1.787,1.232,0.515,0.939,0.865,��,2.6,��
2017/09/24,23:00,0.943,1.502,0.976,1.788,1.231,0.514,0.940,0.863,��쐼,2.3,��
2017/09/24,23:10,0.944,1.502,0.974,1.787,1.233,0.514,0.939,0.865,��쐼,2.6,��
2017/09/24,23:20,0.943,1.506,0.974,1.785,1.233,0.514,0.939,0.865,��쐼,2.2,��
2017/09/24,23:30,0.943,1.501,0.975,1.788,1.231,0.515,0.939,0.863,��쐼,2.0,��
2017/09/24,23:40,0.944,1.503,0.976,1.785,1.232,0.514,0.940,0.864,�쐼,1.9,��
2017/09/24,23:50,0.944,1.501,0.976,1.788,1.230,0.513,0.939,0.864,�쐼,1.7,��
